When you browse on this site, cookies collect data to enhance your experience and personalize the content and advertising you see.
Visit our Privacy Policy to learn more. By continuing to use the site, you agree to this use of cookies and data.
  • In Lithuania
  • List of Countries
  • For 7 days
  • Water Temperature
  • Weather Map
  • Weather Widgets
  • user-avatar
    Login

    Hourly Weather Cele

    Today, 9 April, Thursday

    Time Temperature Precipitation Wind Pressure Humidity
    00:00 +7°C° 0 mm 0 mps 742 mmHg 62%
    01:00 +7°C° 0 mm 0 mps 742 mmHg 64%
    02:00 +6°C° 0 mm 0 mps 741 mmHg 65%
    03:00 +7°C° 0 mm 1 mps 741 mmHg 66%
    04:00 +7°C° 0 mm 1 mps 741 mmHg 66%
    05:00 +8°C° 0 mm 1 mps 741 mmHg 64%
    06:00 +9°C° 0 mm 1 mps 741 mmHg 62%
    07:00 +10°C° 0 mm 1 mps 741 mmHg 57%
    08:00 +13°C° 0 mm 1 mps 741 mmHg 49%
    09:00 +18°C° 0 mm 1 mps 741 mmHg 41%
    10:00 +19°C° 0 mm 0 mps 741 mmHg 33%
    11:00 +22°C° 0 mm 1 mps 741 mmHg 31%
    12:00 +23°C° 0 mm 1 mps 741 mmHg 29%
    13:00 +24°C° 0 mm 1 mps 741 mmHg 25%
    14:00 +24°C° 0 mm 1 mps 740 mmHg 26%
    15:00 +23°C° 0 mm 1 mps 740 mmHg 26%
    16:00 +23°C° 0 mm 1 mps 739 mmHg 27%
    17:00 +20°C° 0 mm 1 mps 739 mmHg 34%
    18:00 +16°C° 0 mm 1 mps 739 mmHg 42%
    19:00 +12°C° 0 mm 0 mps 739 mmHg 50%
    20:00 +11°C° 0 mm 0 mps 740 mmHg 51%
    21:00 +11°C° 0 mm 0 mps 740 mmHg 52%
    22:00 +10°C° 0 mm 0 mps 740 mmHg 53%
    23:00 +10°C° 0 mm 0 mps 741 mmHg 54%

    Tomorrow, 10 April, Friday

    Time Temperature Precipitation Wind Pressure Humidity
    00:00 +11°C° 0 mm 1 mps 741 mmHg 54%
    01:00 +11°C° 0 mm 1 mps 741 mmHg 55%
    02:00 +10°C° 0 mm 1 mps 741 mmHg 56%
    03:00 +10°C° 0 mm 1 mps 741 mmHg 58%
    04:00 +9°C° 0 mm 1 mps 741 mmHg 59%
    05:00 +9°C° 0 mm 0 mps 741 mmHg 58%
    06:00 +11°C° 0 mm 0 mps 741 mmHg 57%
    07:00 +12°C° 0 mm 0 mps 742 mmHg 56%
    08:00 +14°C° 0 mm 0 mps 742 mmHg 51%
    09:00 +19°C° 0 mm 1 mps 742 mmHg 47%
    10:00 +22°C° 0 mm 1 mps 742 mmHg 42%
    11:00 +22°C° 0 mm 1 mps 742 mmHg 40%
    12:00 +23°C° 0 mm 1 mps 742 mmHg 39%
    13:00 +24°C° 0 mm 1 mps 741 mmHg 38%
    14:00 +23°C° 0 mm 1 mps 741 mmHg 40%
    15:00 +22°C° 0 mm 1 mps 740 mmHg 41%
    16:00 +22°C° 0 mm 1 mps 740 mmHg 43%
    17:00 +20°C° 0 mm 1 mps 740 mmHg 51%
    18:00 +18°C° 0 mm 1 mps 740 mmHg 58%
    19:00 +13°C° 0 mm 0 mps 740 mmHg 65%
    20:00 +13°C° 0 mm 0 mps 740 mmHg 68%
    21:00 +12°C° 0 mm 0 mps 740 mmHg 70%
    22:00 +13°C° 0 mm 1 mps 740 mmHg 73%
    23:00 +11°C° 0 mm 0 mps 740 mmHg 76%

    Day after tomorrow, 11 April, Saturday

    Time Temperature Precipitation Wind Pressure Humidity
    00:00 +11°C° 0 mm 0 mps 741 mmHg 78%
    01:00 +10°C° 0 mm 0 mps 741 mmHg 81%
    02:00 +10°C° 0 mm 0 mps 740 mmHg 84%
    03:00 +9°C° 0 mm 0 mps 740 mmHg 88%
    04:00 +9°C° 0 mm 0 mps 740 mmHg 91%
    05:00 +10°C° 0 mm 0 mps 741 mmHg 87%
    06:00 +11°C° 0 mm 0 mps 741 mmHg 83%
    07:00 +12°C° 0 mm 0 mps 741 mmHg 78%
    08:00 +14°C° 0 mm 0 mps 741 mmHg 70%
    09:00 +18°C° 0 mm 1 mps 741 mmHg 61%
    10:00 +20°C° 0 mm 1 mps 741 mmHg 52%
    11:00 +21°C° 0 mm 1 mps 741 mmHg 50%
    12:00 +22°C° 0 mm 1 mps 741 mmHg 49%
    13:00 +21°C° 0 mm 2 mps 741 mmHg 47%
    14:00 +21°C° 0.2 mm 2 mps 741 mmHg 49%
    15:00 +20°C° 0.2 mm 2 mps 740 mmHg 52%
    16:00 +20°C° 0.2 mm 2 mps 740 mmHg 55%
    17:00 +19°C° 0.1 mm 1 mps 740 mmHg 62%
    18:00 +16°C° 0.1 mm 1 mps 740 mmHg 69%
    19:00 +15°C° 0.1 mm 1 mps 740 mmHg 76%
    20:00 +14°C° 0 mm 1 mps 740 mmHg 77%
    21:00 +14°C° 0 mm 1 mps 741 mmHg 78%
    22:00 +13°C° 0 mm 0 mps 741 mmHg 79%
    23:00 +12°C° 0 mm 0 mps 741 mmHg 81%

    12 April, Sunday

    Time Temperature Precipitation Wind Pressure Humidity
    00:00 +12°C° 0 mm 0 mps 741 mmHg 84%
    01:00 +11°C° 0 mm 0 mps 740 mmHg 86%
    02:00 +10°C° 0 mm 0 mps 740 mmHg 88%
    03:00 +10°C° 0 mm 0 mps 740 mmHg 90%
    04:00 +9°C° 0 mm 0 mps 739 mmHg 92%
    05:00 +10°C° 0 mm 0 mps 739 mmHg 89%
    06:00 +11°C° 0 mm 0 mps 739 mmHg 85%
    07:00 +12°C° 0 mm 0 mps 740 mmHg 82%
    08:00 +14°C° 0 mm 0 mps 739 mmHg 72%
    09:00 +17°C° 0 mm 0 mps 739 mmHg 62%
    10:00 +21°C° 0 mm 1 mps 739 mmHg 53%
    11:00 +22°C° 0 mm 1 mps 738 mmHg 48%
    12:00 +23°C° 0 mm 2 mps 738 mmHg 44%
    13:00 +24°C° 0 mm 2 mps 738 mmHg 40%
    14:00 +22°C° 0 mm 3 mps 737 mmHg 39%
    15:00 +22°C° 0 mm 3 mps 737 mmHg 39%
    16:00 +22°C° 0 mm 4 mps 736 mmHg 38%
    17:00 +19°C° 0 mm 3 mps 736 mmHg 44%
    18:00 +17°C° 0 mm 3 mps 735 mmHg 50%
    19:00 +15°C° 0 mm 2 mps 735 mmHg 56%
    20:00 +14°C° 0 mm 2 mps 735 mmHg 58%
    21:00 +13°C° 0 mm 2 mps 735 mmHg 61%
    22:00 +12°C° 0 mm 2 mps 735 mmHg 64%
    23:00 +12°C° 0 mm 2 mps 735 mmHg 66%

    13 April, Monday

    Time Temperature Precipitation Wind Pressure Humidity
    00:00 +10°C° 0 mm 2 mps 734 mmHg 67%
    01:00 +10°C° 0 mm 2 mps 734 mmHg 69%
    02:00 +10°C° 0 mm 2 mps 734 mmHg 72%
    03:00 +10°C° 0 mm 1 mps 734 mmHg 74%
    04:00 +10°C° 0 mm 1 mps 733 mmHg 76%
    05:00 +11°C° 0 mm 1 mps 733 mmHg 75%
    06:00 +10°C° 0 mm 2 mps 733 mmHg 73%
    07:00 +12°C° 0 mm 2 mps 733 mmHg 71%
    08:00 +14°C° 0 mm 2 mps 734 mmHg 61%
    09:00 +16°C° 0 mm 3 mps 734 mmHg 51%
    10:00 +18°C° 0 mm 4 mps 734 mmHg 41%
    11:00 +19°C° 0 mm 4 mps 734 mmHg 39%
    12:00 +19°C° 0 mm 5 mps 733 mmHg 37%
    13:00 +20°C° 0 mm 6 mps 733 mmHg 36%
    14:00 +19°C° 0 mm 5 mps 733 mmHg 36%
    15:00 +19°C° 0 mm 5 mps 732 mmHg 37%
    16:00 +17°C° 0 mm 5 mps 732 mmHg 37%
    17:00 +15°C° 0 mm 4 mps 732 mmHg 43%
    18:00 +13°C° 0 mm 3 mps 731 mmHg 48%
    19:00 +12°C° 0 mm 3 mps 731 mmHg 54%
    20:00 +12°C° 0 mm 2 mps 731 mmHg 59%
    21:00 +10°C° 0 mm 2 mps 731 mmHg 65%
    22:00 +9°C° 0 mm 2 mps 731 mmHg 70%
    23:00 +8°C° 0 mm 2 mps 731 mmHg 74%

    14 April, Tuesday

    Time Temperature Precipitation Wind Pressure Humidity
    00:00 +8°C° 0 mm 2 mps 731 mmHg 78%
    01:00 +8°C° 0 mm 2 mps 730 mmHg 81%
    02:00 +9°C° 0 mm 1 mps 730 mmHg 83%
    03:00 +8°C° 0 mm 1 mps 730 mmHg 86%
    04:00 +8°C° 0 mm 1 mps 730 mmHg 88%
    05:00 +9°C° 0 mm 1 mps 731 mmHg 85%
    06:00 +10°C° 0 mm 1 mps 731 mmHg 82%
    07:00 +9°C° 0 mm 2 mps 732 mmHg 79%
    08:00 +8°C° 0.8 mm 2 mps 732 mmHg 84%
    09:00 +6°C° 0.8 mm 2 mps 733 mmHg 88%
    10:00 +4°C° 0.8 mm 3 mps 734 mmHg 93%
    11:00 +4°C° 1.3 mm 2 mps 734 mmHg 94%
    12:00 +3°C° 1.3 mm 2 mps 734 mmHg 94%
    13:00 +3°C° 1.3 mm 2 mps 735 mmHg 95%
    14:00 +4°C° 0.6 mm 1 mps 735 mmHg 93%
    15:00 +5°C° 0.6 mm 1 mps 736 mmHg 92%
    16:00 +5°C° 0.6 mm 1 mps 736 mmHg 91%
    17:00 +5°C° 0 mm 1 mps 736 mmHg 92%
    18:00 +4°C° 0 mm 1 mps 737 mmHg 93%
    19:00 +4°C° 0 mm 1 mps 737 mmHg 94%
    20:00 +3°C° 0 mm 1 mps 738 mmHg 93%
    21:00 +2°C° 0 mm 0 mps 738 mmHg 93%
    22:00 +1°C° 0 mm 0 mps 739 mmHg 92%
    23:00 +1°C° 0 mm 0 mps 739 mmHg 91%
    Show more